Regional Weather Roundup
Issued by NWS

Home | Current Version | Previous Version | Text Only | Print | Product List | Glossary Off
Versions: 1 2 3 4 5 6 7 8 9 10 11 12 13 14 15 16 17 18 19 20 21 22 23 24 25 26 27 28 29 30 31 32 33 34 35 36 37 38 39 40 41 42 43 44 45 46 47 48 49 50

000
ASUS43 KOAX 240802
RWRNE

WEATHER ROUNDUP FOR NEBRASKA
NATIONAL WEATHER SERVICE OMAHA NE
300 AM CDT SUN MAY 24 2015

NOTES: SATELLITE DATA IS BEING USED TO AUGMENT CLOUD COVER ABOVE
       12000 FEET.
       "FAIR" INDICATES FEW OR NO CLOUDS BELOW 12,000 FEET WITH NO
       SIGNIFICANT WEATHER AND/OR OBSTRUCTIONS TO VISIBILITY.

  * THESE STATIONS DO NOT REPORT WEATHER SUCH AS RAIN...SNOW OR FOG.

NEZ001>004-019>022-054>056-240900-
NEBRASKA PANHANDLE

CITY           SKY/WX    TMP DP  RH WIND       PRES   REMARKS
SCOTTSBLUFF    LGT RAIN  51  50  96 SE9       29.92S
ALLIANCE       RAIN      52  50  93 SE14      29.92F
CHADRON        LGT RAIN  53  51  93 E7        29.94F
KIMBALL          N/A    N/A N/A N/A MISG        N/A
SIDNEY         CLOUDY    50  49  96 E8        29.92F
$$

NEZ057>060-069>072-079>082-240900-
SOUTHWEST NEBRASKA

CITY           SKY/WX    TMP DP  RH WIND       PRES   REMARKS
NORTH PLATTE   CLOUDY    56  55  97 SE10      29.93F
IMPERIAL       CLOUDY    55  53  93 SE15      29.91F
LEXINGTON      FOG       59  58  96 SE8       29.93R VSB 1
MCCOOK         CLOUDY    57  56  96 SE9       29.92F FOG
$$

NEZ005>010-023>029-035>040-094-240900-
NORTH CENTRAL NEBRASKA

CITY           SKY/WX    TMP DP  RH WIND       PRES   REMARKS
VALENTINE      CLOUDY    54  53  97 E9        29.98F FOG
AINSWORTH      FOG       55  55 100 E9        29.98F VSB 3/4
BROKEN BOW     CLOUDY    57  56  96 E12       29.92F FOG
ORD            CLOUDY    57  56  96 E8        29.94F FOG
$$

NEZ041-046>049-061>064-073>077-083>087-240900-
SOUTH CENTRAL NEBRASKA

CITY           SKY/WX    TMP DP  RH WIND       PRES   REMARKS
GRAND ISLAND   CLOUDY    59  57  93 E6        29.94F
AURORA         CLOUDY    60  60 100 E9        29.92F FOG
HASTINGS       CLOUDY    59  58  96 E7        29.91F
HEBRON         CLOUDY    61  58  91 E3        29.90F
HOLDREGE       FOG       57  56  95 SE9       29.91F VSB 3/4
KEARNEY *      CLOUDY    57  55  94 E9        29.92F
$$

NEZ011>018-030>034-042>045-240900-
NORTHEAST NEBRASKA

CITY           SKY/WX    TMP DP  RH WIND       PRES   REMARKS
NORFOLK        CLOUDY    58  58 100 E8        29.97F FOG
ALBION         CLOUDY    59  56  92 E7        29.97F FOG
BLAIR          DRIZZLE   60  58  92 E13       29.97F
COLUMBUS *     CLOUDY    59  54  82 E10       29.98F
FREMONT        CLOUDY    61  59  93 E8        29.96F
TEKAMAH        CLOUDY    61  60  97 E8        29.98F
$$

NEZ050>053-065>068-078-088>093-240900-
SOUTHEAST NEBRASKA

CITY           SKY/WX    TMP DP  RH WIND       PRES   REMARKS
LINCOLN        LGT RAIN  61  59  93 E12       29.93F
OMAHA EPPLEY   LGT RAIN  61  59  93 E13       29.96F
BEATRICE       DRIZZLE   60  60  97 E7        29.90F
FALLS CITY     CLOUDY    61  60  97 CALM      29.89F
NEBRASKA CITY  DRIZZLE   60  60  99 E9        29.94F
PLATTSMOUTH    RAIN      60  58  94 NE7       29.94F
$$

NEZ044-045-051>053-067-240900-
OMAHA AREA

CITY           SKY/WX    TMP DP  RH WIND       PRES   REMARKS
OMAHA EPPLEY   LGT RAIN  61  59  93 E13       29.96F
BLAIR          DRIZZLE   60  58  92 E13       29.97F
FREMONT        CLOUDY    61  59  93 E8        29.96F
OFFUTT AFB     LGT RAIN  61  59  94 NE10      29.94F
PLATTSMOUTH    RAIN      60  58  94 NE7       29.94F
WAHOO          RAIN      61  59  94 E10       29.95F
$$



USA.gov is the U.S. government's official web portal to all federal, state and local government web resources and services.